FW3337 Weather Reports


Display with metric or nautical units.
time (UTC)temp
F
wind
direction
speed
MPH
gust
MPH
rain 1hr
in
rain 24hr
in
rain mn
in
humidity
%
barometer
mb
20260906144555 70 54 0.0 3.0 0.00 0.00 0.00 77 1015.2
20260906143055 70 103 1.0 7.0 0.00 0.00 0.00 78 1015.1
20260906141551 70 97 0.0 3.0 0.00 0.00 0.00 78 1014.9
20260906140056 69 81 2.0 7.0 0.00 0.00 0.00 78 1014.9
20260906134546 69 85 2.0 7.0 0.00 0.00 0.00 79 1014.7
20260906133109 68 52 0.0 3.0 0.00 0.00 0.00 82 1014.9
20260906131541 67 98 1.0 6.0 0.00 0.00 0.00 84 1014.8
20260906130037 66 95 1.0 3.0 0.00 0.00 0.00 88 1014.6
20260906124535 63 92 2.0 4.0 0.00 0.00 0.00 95 1014.7
20260906123030 61 282 0.0 0.0 0.00 0.00 0.00 97 1014.8
20260906121530 59 282 0.0 0.0 0.00 0.00 0.00 97 1014.8
20260906120032 59 282 0.0 0.0 0.00 0.00 0.00 96 1014.5
20260906114541 58 282 0.0 0.0 0.00 0.00 0.00 96 1014.4
20260906113026 58 282 0.0 0.0 0.00 0.00 0.00 97 1014.2
20260906111524 57 282 0.0 0.0 0.00 0.00 0.00 97 1014.0
20260906110022 56 282 0.0 0.0 0.00 0.00 0.00 97 1013.9
20260906104523 56 282 0.0 0.0 0.00 0.00 0.00 97 1013.6
20260906103017 56 282 0.0 0.0 0.00 0.00 0.00 97 1013.3
20260906101522 56 282 0.0 0.0 0.00 0.00 0.00 96 1013.2
20260906100022 56 282 0.0 0.0 0.00 0.00 0.00 96 1013.2
20260906094512 57 282 0.0 0.0 0.00 0.00 0.00 96 1012.9
20260906093010 57 282 0.0 0.0 0.00 0.00 0.00 96 1012.9
20260906091514 57 282 0.0 0.0 0.00 0.00 0.00 96 1012.6
20260906090014 57 282 0.0 0.0 0.00 0.00 0.00 96 1012.6
20260906084507 57 282 0.0 1.0 0.00 0.00 0.00 96 1012.6
20260906083003 57 282 0.0 0.0 0.00 0.00 0.00 96 1012.3
20260906081502 58 282 0.0 0.0 0.00 0.00 0.00 96 1012.2
20260906080002 58 282 0.0 0.0 0.00 0.00 0.00 96 1012.1
20260906074501 58 282 0.0 0.0 0.00 0.00 0.00 96 1012.3
20260906073059 58 282 0.0 0.0 0.00 0.00 0.00 96 1012.1
20260906071600 59 282 0.0 0.0 0.00 0.00 0.00 95 1012.1
20260906070059 59 282 0.0 0.0 0.00 0.00 0.00 95 1012.1
20260906064555 59 282 0.0 0.0 0.00 0.00 0.00 95 1012.2
20260906063054 59 282 0.0 0.0 0.00 0.00 0.00 95 1012.2
20260906061554 60 282 0.0 0.0 0.00 0.00 0.00 95 1012.3
20260906060053 60 282 0.0 0.0 0.00 0.00 0.00 95 1012.4
20260906054601 60 282 0.0 0.0 0.00 0.00 0.00 95 1012.3
20260906053057 61 282 0.0 0.0 0.00 0.00 0.00 95 1012.2
20260906051605 61 282 0.0 0.0 0.00 0.00 0.00 94 1012.5
20260906050046 61 282 0.0 0.0 0.00 0.00 0.00 94 1012.4
20260906044551 62 282 0.0 0.0 0.00 0.00 0.00 94 1012.4
20260906043045 62 282 0.0 0.0 0.00 0.00 0.00 94 1012.5
20260906041540 62 282 0.0 0.0 0.00 0.00 0.00 93 1012.2
20260906040112 63 282 0.0 1.0 0.00 0.00 0.00 93 1012.2
20260906034537 63 282 0.0 2.0 0.00 0.00 0.00 93 1012.1
20260906033048 62 282 0.0 0.0 0.00 0.00 0.00 94 1012.0
20260906031536 63 282 0.0 0.0 0.00 0.00 0.00 93 1012.0
20260906030033 63 282 0.0 0.0 0.00 0.00 0.00 93 1011.8
20260906024532 64 282 0.0 0.0 0.00 0.00 0.00 93 1011.8
20260906023031 64 282 0.0 0.0 0.00 0.00 0.00 93 1011.9
20260906021532 64 282 0.0 1.0 0.00 0.00 0.00 93 1011.9
20260906020030 64 282 0.0 2.0 0.00 0.00 0.00 93 1011.9
20260906014530 64 282 0.0 0.0 0.00 0.00 0.00 93 1011.8
20260906013032 64 282 0.0 0.0 0.00 0.00 0.00 92 1011.7
20260906011527 64 282 0.0 0.0 0.00 0.00 0.00 92 1011.6
20260906010026 65 282 0.0 0.0 0.00 0.00 0.00 91 1011.4
20260906004523 65 282 0.0 0.0 0.00 0.00 0.00 91 1011.3
20260906003023 65 282 0.0 0.0 0.00 0.00 0.00 89 1011.1
20260906001524 66 282 0.0 0.0 0.00 0.00 0.00 89 1010.9
20260906000021 67 282 0.0 0.0 0.00 0.00 0.00 88 1010.8
20260905234520 68 282 0.0 0.0 0.00 0.00 0.00 87 1010.6
20260905233019 69 282 0.0 0.0 0.00 0.00 0.00 85 1010.6
20260905231521 70 282 0.0 0.0 0.00 0.00 0.00 83 1010.7
20260905230018 71 282 0.0 0.0 0.00 0.00 0.00 82 1010.5
20260905224542 72 282 0.0 0.0 0.00 0.00 0.00 81 1010.4
20260905223021 73 282 0.0 0.0 0.00 0.00 0.00 78 1010.2
20260905221516 74 282 0.0 0.0 0.00 0.00 0.00 76 1010.1
20260905220016 74 282 0.0 0.0 0.00 0.00 0.00 74 1010.2
20260905214516 74 282 0.0 0.0 0.00 0.00 0.00 73 1010.0
20260905213015 74 282 0.0 0.0 0.00 0.00 0.00 71 1010.0
20260905211535 75 282 0.0 3.0 0.00 0.00 0.00 69 1010.0
20260905210021 76 40 0.0 2.0 0.00 0.00 0.00 67 1009.8
20260905204513 76 81 0.0 2.0 0.00 0.00 0.00 69 1009.7
20260905203012 75 85 0.0 2.0 0.00 0.00 0.00 68 1009.6
20260905201512 75 89 0.0 1.0 0.00 0.00 0.00 69 1009.7
20260905200021 75 89 0.0 3.0 0.00 0.00 0.00 68 1009.8
20260905194511 75 89 0.0 3.0 0.00 0.00 0.00 65 1009.7
20260905193011 76 88 0.0 6.0 0.00 0.00 0.00 64 1009.5
20260905191510 77 93 0.0 7.0 0.00 0.00 0.00 63 1009.5
20260905190010 76 66 1.0 4.0 0.00 0.00 0.00 62 1009.7
20260905184524 76 53 0.0 1.0 0.00 0.00 0.00 67 1009.9
20260905183008 75 52 0.0 1.0 0.00 0.00 0.00 68 1009.9
20260905181507 76 50 0.0 4.0 0.00 0.00 0.00 63 1009.9
20260905180007 76 63 0.0 3.0 0.00 0.00 0.00 60 1010.0
20260905174505 77 98 0.0 3.0 0.00 0.00 0.00 62 1009.9
20260905173004 77 91 1.0 4.0 0.00 0.00 0.00 58 1010.0
20260905171502 77 258 0.0 6.0 0.00 0.00 0.00 63 1010.1
20260905170112 76 101 1.0 6.0 0.00 0.00 0.00 62 1010.3
20260905170001 76 101 1.0 6.0 0.00 0.00 0.00 62 1010.3
20260905164607 76 179 0.0 5.0 0.00 0.00 0.00 64 1010.3
20260905163108 75 83 1.0 8.0 0.00 0.00 0.00 63 1010.5
20260905161609 76 278 0.0 8.0 0.00 0.00 0.00 65 1010.3
20260905160057 76 66 0.0 7.0 0.00 0.00 0.00 65 1010.3
20260905154604 75 306 0.0 3.0 0.00 0.00 0.00 66 1010.2
20260905153051 74 299 0.0 5.0 0.00 0.00 0.00 67 1010.3
20260905151547 74 348 1.0 6.0 0.00 0.00 0.00 71 1010.4
20260905150048 73 79 0.0 4.0 0.00 0.00 0.00 71 1010.5